Other Public Products
Issued by NWS Grand Forks, ND

Home | Current Version | Previous Version | Graphics & Text | Print | Product List | Glossary On
Versions: 1 2 3 4 5 6 7 8 9 10 11 12 13 14 15 16 17 18 19 20 21 22 23 24 25 26 27 28 29 30 31 32 33 34 35 36 37 38 39 40 41 42 43 44 45 46 47 48 49 50
000
FPUS83 KFGF 300010
OPUFGF
PRAIRIE TO PINES WEATHER ROUNDUP
NATIONAL WEATHER SERVICE EASTERN NORTH DAKOTA/GRAND FORKS ND
700 PM CDT THU SEP 29 2016

 **SATELLITE DATA USED TO AUGMENT SKY COVER AT AUTOMATED STATIONS**
 *****  WEATHER ACROSS EASTERN NORTH DAKOTA  *****

CITY           SKY/WX    TMP DP  RH WIND       PRES   REMARKS
GRAND FORKS    CLEAR     62  46  55 SE8       30.36F
6HR MIN TEMP:  62; 6HR MAX TEMP:  68;

GRAND FORKS AF CLEAR     61  47  60 SE8       30.36F
GRAND CITY NWS   N/A     59 N/A N/A SE6         N/A
BUXTON         NOT AVBL
DEVILS LAKE    CLEAR     60  49  66 SE9       30.33S
6HR MIN TEMP:  60; 6HR MAX TEMP:  65;

FARGO          CLEAR     63  44  50 SE7       30.37F
6HR MIN TEMP:  63; 6HR MAX TEMP:  68;

WAHPETON ARPT  CLEAR     61  43  51 E7        30.38S
$$

 *****  WEATHER ACROSS CENTRAL AND WESTERN NORTH DAKOTA  *****

CITY           SKY/WX    TMP DP  RH WIND       PRES   REMARKS
JAMESTOWN      CLEAR     61  47  59 SE9       30.32S
6HR MIN TEMP:  61; 6HR MAX TEMP:  67;

BISMARCK       CLEAR     65  46  50 SE14      30.25F
6HR MIN TEMP:  65; 6HR MAX TEMP:  71;

MINOT          CLEAR     68  46  45 SE14      30.22F
6HR MIN TEMP:  67; 6HR MAX TEMP:  72; 6HR PCP: TRACE;

MINOT AFB      CLEAR     66  47  50 SE14      30.21F
6HR MIN TEMP:  66; 6HR MAX TEMP:  71;

GARRISON         N/A     65  46  50 SE12      30.22F
6HR MIN TEMP:  65; 6HR MAX TEMP:  71;

WILLISTON      CLEAR     72  45  37 SE10      30.13R
6HR MIN TEMP:  70; 6HR MAX TEMP:  76;

DICKINSON      CLEAR     67  42  40 SE17      30.15F
6HR MIN TEMP:  67; 6HR MAX TEMP:  74;

HETTINGER      CLEAR     72  43  35 SE14      30.19S
6HR MIN TEMP:  69; 6HR MAX TEMP:  77;

$$

 *****  OTHER OBSERVATIONS NORTHEAST NORTH DAKOTA  *****

CITY           SKY/WX    TMP DP  RH WIND       PRES   REMARKS
WALHALLA       FAIR      59  55  88 SE8       30.36S
LANGDON        FAIR      59  48  67 SE10      30.35F
CAVALIER       FAIR      61  48  63 SE5       30.36F
GRAFTON        FAIR      61  50  67 SE8       30.38S
CANDO          FAIR      59  48  67 SE12      30.33F
FORT TOTTEN      N/A     62  46  55 SE7       29.95S
ROLLA          FAIR      59  46  63 SE10      30.31F
RUGBY          FAIR      63  48  59 SE10      30.27F
 ***** THE ABOVE OBSERVATIONS ARE NON NWS ARE NOT QUALITY
        CONTROLLED AND MAY MIS-REPORT RAIN FOR SNOW...
$$

 *****  OTHER OBSERVATIONS SOUTHEAST NORTH DAKOTA *****

CITY           SKY/WX    TMP DP  RH WIND       PRES   REMARKS
COOPERSTOWN    FAIR      61  46  59 SE9       30.35S
VALLEY CITY    FAIR      61  46  59 SE8       30.37S
OAKES          NOT AVBL
GWINNER        FAIR      63  46  55 SE9       30.36S
BUFFALO        NOT AVBL
WYNDMERE       NOT AVBL
 ***** THE ABOVE OBSERVATIONS ARE NON NWS ARE NOT QUALITY
       CONTROLLED AND MAY MIS-REPORT RAIN FOR SNOW...
$$

  *****  WEATHER ACROSS NORTHERN MINNESOTA  *****

CITY           SKY/WX    TMP DP  RH WIND       PRES   REMARKS
FLAG ISLAND    CLEAR     57  46  67 SE5       30.42F
WARROAD        CLEAR     57  50  77 SE7       30.43S
ROSEAU         HAZE      59  50  72 SE5       30.41F VSB 1/4
HALLOCK        CLEAR     61  50  67 SE5       30.38S
THF RVR FALLS  CLEAR     58  46  64 SE8       30.41S
6HR MIN TEMP:  58; 6HR MAX TEMP:  64;

HALSTAD          N/A     61  45  54 SE8         N/A
FOSSTON        CLEAR     57  45  62 E6        30.42S
BAUDETTE       CLOUDY    57  47  69 SE7       30.45S
6HR MIN TEMP:  57; 6HR MAX TEMP:  63;

WASKISH        CLOUDY    55  48  76 CALM      30.45S
CROOKSTON      CLEAR     61  46  59 S6        30.39F
$$
  *****  WEATHER ACROSS CENTRAL AND WEST MINNESOTA  *****

CITY           SKY/WX    TMP DP  RH WIND       PRES   REMARKS
BEMIDJI        CLOUDY    56  46  68 SE5       30.44S
PARK RAPIDS    CLOUDY    58  43  57 E5        30.42F
6HR MIN TEMP:  58; 6HR MAX TEMP:  62;

WADENA         PTCLDY    55  46  71 E3        30.42S
DETROIT LAKES  CLEAR     57  45  62 SE7       30.42S
MOORHEAD       CLEAR     61  46  59 SE6       30.39S
FERGUS FALLS   CLEAR     61  46  59 E6        30.41F
ELBOW LAKE     FAIR      58  47  66 SE7       30.40S
MORRIS MN      CLEAR     59  46  63 E8        30.38F
STAPLES        CLEAR     55  46  71 CALM      30.42F
WHEATON        NOT AVBL
$$
  *****  WEATHER ELSEWHERE ACROSS MINNESOTA  *****

CITY           SKY/WX    TMP DP  RH WIND       PRES   REMARKS
DULUTH         PTCLDY    53  47  79 E6        30.46F
6HR MIN TEMP:  53; 6HR MAX TEMP:  62;

INTRNTL FALLS  CLOUDY    55  49  80 SE3       30.47S
6HR MIN TEMP:  55; 6HR MAX TEMP:  58;

ELY            CLOUDY    54  46  76 NE3       30.47F
CLOQUET        CLEAR     54  45  71 E6        30.45F
BRAINERD       CLEAR     56  48  74 NE3       30.43F
6HR MIN TEMP:  56; 6HR MAX TEMP:  61;

HIBBING        CLOUDY    55  47  74 NE3       30.46S
6HR MIN TEMP:  55; 6HR MAX TEMP:  58;

ALEXANDRIA     CLEAR     58  47  66 E6        30.42S
6HR MIN TEMP:  58; 6HR MAX TEMP:  64;

SAINT CLOUD    CLEAR     60  51  72 CALM      30.40F
6HR MIN TEMP:  60; 6HR MAX TEMP:  66;

MINNEAPOLIS    CLEAR     64  50  60 VRB6      30.40R
6HR MIN TEMP:  63; 6HR MAX TEMP:  68;

$$

  *****  WEATHER ACROSS SOUTH DAKOTA  *****

CITY           SKY/WX    TMP DP  RH WIND       PRES   REMARKS
SIOUX FALLS    CLEAR     65  48  54 SE7       30.34F
6HR MIN TEMP:  63; 6HR MAX TEMP:  69;

BROOKINGS      CLEAR     62  48  60 E7        30.35F
WATERTOWN      CLEAR     62  46  55 E7        30.36S
6HR MIN TEMP:  61; 6HR MAX TEMP:  66;

HURON          CLEAR     65  46  50 SE7       30.31F
6HR MIN TEMP:  63; 6HR MAX TEMP:  70;

SISSETON         N/A     62  46  55 S7        30.35F
ABERDEEN       CLEAR     64  44  48 SE9       30.32F
6HR MIN TEMP:  64; 6HR MAX TEMP:  70;

MITCHELL       CLEAR     65  46  50 SE8       30.33F
PIERRE         CLEAR     67  44  43 SE15      30.24S
6HR MIN TEMP:  67; 6HR MAX TEMP:  74; 6HR PCP: TRACE;

MOBRIDGE       CLEAR     69  42  37 SE15      30.23F
RAPID CITY     CLEAR     75  45  34 S13       30.17S
$$

  *****  SOME WEATHER IN NEARBY STATES *****

CITY           SKY/WX    TMP DP  RH WIND       PRES   REMARKS
GLASGOW MT     CLEAR     77  47  34 S14       30.00F
6HR MIN TEMP:  72; 6HR MAX TEMP:  81;

GREAT FALLS MT SUNNY     74  50  42 NE10      30.01S
6HR MIN TEMP:  66; 6HR MAX TEMP:  76;

CHEYENNE WY    CLEAR     72  36  26 SE9       30.29F
6HR MIN TEMP:  72; 6HR MAX TEMP:  79;

SCOTTSBLUFF NE CLEAR     75  45  34 SE17      30.20S
6HR MIN TEMP:  73; 6HR MAX TEMP:  83;

OMAHA NE       CLEAR     68  48  48 NE6       30.32S
6HR MIN TEMP:  67; 6HR MAX TEMP:  73;

DES MOINES IA  CLEAR     70  46  42 N7        30.29S
6HR MIN TEMP:  70; 6HR MAX TEMP:  76;

DAVENPORT IA   CLOUDY    66  54  65 E13       30.26R
6HR MIN TEMP:  66; 6HR MAX TEMP:  74;

CHICAGO IL     CLOUDY    63  57  81 NE10      30.22R
6HR MIN TEMP:  62; 6HR MAX TEMP:  65; 6HR PCP:  0.10;

EAU CLAIRE WI  CLEAR     63  52  67 N5        30.37S
6HR MIN TEMP:  63; 6HR MAX TEMP:  71;

LA CROSSE WI   CLEAR     66  53  63 N6        30.34R
6HR MIN TEMP:  66; 6HR MAX TEMP:  75;

$$

  *****  SOME NATIONAL WEATHER *****

CITY           SKY/WX    TMP DP  RH WIND       PRES   REMARKS
LA GUARDIA NY  CLOUDY    64  53  67 E17       30.35R
6HR MIN TEMP:  64; 6HR MAX TEMP:  67; 6HR PCP: TRACE;

RALEIGH NC     MOCLDY    73  70  90 E5        30.01S
6HR MIN TEMP:  73; 6HR MAX TEMP:  79;                              C1F1C2F2C3F3C4F4C5F5C6F6C7F7C8F8C9F9CaFaCbFbCcFcCdFdCe!



USA.gov is the U.S. government's official web portal to all federal, state and local government web resources and services.